Weather History for Vidsel, Sweden

Change the Weather History Date:

Thursday, January 17, 2013

  Actual Average Record
Temperature  
Mean Temperature -11 °F -  
Max Temperature 1 °F - - ()
Min Temperature -20 °F - - ()
Degree Days  
Heating Degree Days 76    
Moisture  
Dew Point -16 °F    
Average Humidity 81    
Maximum Humidity 85    
Minimum Humidity 76    
Precipitation  
Precipitation 0.00 in - - ()
Sea Level Pressure  
Sea Level Pressure 30.17 in    
Wind  
Wind Speed 0 mph ()    
Max Wind Speed 0 mph    
Max Gust Speed -    
Visibility 6.2 miles    
Events      
T = Trace of Precipitation, MM = Missing Value Source: Averaged Metar Reports

Daily Weather History Graph

Daily Weather History Graph

Search for Another Location

Airport:

Trip Planner

Search our weather history database for the weather conditions in past years. The results will help you decide how hot, cold, wet, or windy it might be!

Date:

Astronomy

Jan. 17, 2013 Rise Set
Actual Time 9:23 AM CET 2:15 PM CET
Civil Twilight 8:08 AM CET 3:31 PM CET
Nautical Twilight 6:59 AM CET 4:40 PM CET
Astronomical Twilight 5:57 AM CET 5:42 PM CET
Moon 9:17 AM CET (1/17) No Moon Set
Length of Visible Light 7h 22m
Length of Day
4h 52m
Waxing Crescent, 35% of the Moon is Illuminated
Jan 17
Waxing Crescent
Jan 19
First Quarter
Jan 27
Full
Feb 3
Last Quarter
Feb 10
New

Hourly Weather History & Observations

Time (CET) Temp. Dew Point Humidity Pressure Visibility Wind Dir Wind Speed Gust Speed Precip Events Conditions
12:20 AM -14.8 °F -20.2 °F 77% 30.24 in 6.2 mi Calm Calm - N/A   Unknown
12:50 AM -14.8 °F -18.4 °F 84% 30.24 in 6.2 mi Calm Calm - N/A   Unknown
9:50 AM -20.2 °F -25.6 °F 76% 30.24 in - Calm Calm - N/A   Clear
10:20 AM -16.6 °F -22.0 °F 76% 30.24 in - Calm Calm - N/A   Clear
10:50 AM -14.8 °F -18.4 °F 84% 30.24 in - Calm Calm - N/A   Clear
11:20 AM -13.0 °F -18.4 °F 77% 30.24 in - Calm Calm - N/A   Clear
11:50 AM -11.2 °F -16.6 °F 77% 30.21 in - Calm Calm - N/A   Clear
12:20 PM -11.2 °F -14.8 °F 84% 30.21 in - Calm Calm - N/A   Clear
12:50 PM -11.2 °F -14.8 °F 84% 30.21 in - Calm Calm - N/A   Clear
1:20 PM -11.2 °F -14.8 °F 84% 30.21 in - Calm Calm - N/A   Clear
1:50 PM -11.2 °F -14.8 °F 84% 30.18 in - Calm Calm - N/A   Clear
2:20 PM -11.2 °F -16.6 °F 77% 30.18 in - Calm Calm - N/A   Clear
2:50 PM -13.0 °F -18.4 °F 77% 30.18 in - Calm Calm - N/A   Clear
3:20 PM -14.8 °F -18.4 °F 84% 30.18 in - Calm Calm - N/A   Clear
3:50 PM -14.8 °F -20.2 °F 77% 30.18 in - Calm Calm - N/A   Clear
4:20 PM -14.8 °F -20.2 °F 77% 30.18 in 6.2 mi Calm Calm - N/A   Unknown
4:50 PM -13.0 °F -18.4 °F 77% 30.18 in 6.2 mi Calm Calm - N/A   Unknown
5:20 PM -14.8 °F -20.2 °F 77% 30.15 in 6.2 mi Calm Calm - N/A   Unknown
5:50 PM -14.8 °F -18.4 °F 84% 30.15 in 6.2 mi Calm Calm - N/A   Unknown
6:20 PM -13.0 °F -16.6 °F 84% 30.15 in 6.2 mi Calm Calm - N/A   Unknown
7:20 PM -11.2 °F -16.6 °F 77% 30.15 in 6.2 mi Calm Calm - N/A   Unknown
7:50 PM -13.0 °F -16.6 °F 84% 30.12 in 6.2 mi Calm Calm - N/A   Unknown
8:20 PM -11.2 °F -14.8 °F 84% 30.12 in 6.2 mi Calm Calm - N/A   Unknown
8:50 PM -11.2 °F -14.8 °F 84% 30.12 in 6.2 mi Calm Calm - N/A   Unknown
9:20 PM -9.4 °F -13.0 °F 84% 30.12 in 6.2 mi Calm Calm - N/A   Unknown
9:50 PM -4.0 °F -7.6 °F 85% 30.12 in 6.2 mi Calm Calm - N/A   Unknown
10:20 PM -4.0 °F -7.6 °F 85% 30.09 in 6.2 mi Calm Calm - N/A   Unknown
10:50 PM -5.8 °F -9.4 °F 84% 30.09 in 6.2 mi Calm Calm - N/A   Unknown
11:20 PM -2.2 °F -5.8 °F 85% 30.09 in 6.2 mi Calm Calm - N/A   Unknown
11:50 PM 1.4 °F -2.2 °F 85% 30.09 in 6.2 mi Calm Calm - N/A   Unknown